Tracking 19564 objects as of 19-Mar-2019
HD Live streaming from Space Station
objects crossing your sky now

COSMOS 1328

Track COSMOS 1328 now!
10-day predictions
COSMOS 1328 is classified as:


NORAD ID: 12987
Int'l Code: 1981-117A
Perigee: 545.3 km
Apogee: 554.7 km
Inclination: 82.5 °
Period: 95.5 minutes
Semi major axis: 6920 km
RCS: 9.2433 m2 (large)
Launch date: December 3, 1981
Source: Commonwealth of Independent States (former USSR) (CIS)
Launch site: PLESETSK MISSILE AND SPACE COMPLEX (PKMTR)
aabbcc
Your satellite tracking list
Your tracking list is empty




NASA's NSSDC Master Catalog

Two Line Element Set (TLE):
1 12987U 81117A   19077.71847215  .00000479  00000-0  29358-4 0  9995
2 12987  82.5156 338.1764 0006770 229.9044 130.1591 15.07825340 28856
Source of the keplerian elements: AFSPC